Date String (YYYY-MM-DD hh:mm:ss) UTC,Instrument flags,Ambient pressure (hPa),Sample flow (lpm),Bypass flow (lpm),Sample temperature (°C),Ambient temperature (°C),ASC tube jacket temperature (°C),LED temperature (°C),Box temperature (°C),Sample RH (%),Span deviation,Mass concentration (μg/m³),Mass concentration (μg/m³),Mass concentration (μg/m³)
DateTimeUTC,F1_M11,P_M11,Q1_M11,Q2_M11,T1_M11,T2_M11,T3_M11,T4_M11,T5_M11,U1_M11,ZSPAN_M11,X0_M11,X2_M11,X1_M11
2022-09-06 22:00:00,,0830.9,5.01,0.00,29.5,27.0,00.0,38.0,31.3,17.7,0003.6,0038.30,0021.93,0019.91
2022-09-06 22:01:00,,0830.9,4.99,0.00,29.4,27.3,00.0,38.0,31.2,17.7,0004.0,0037.64,0021.94,0019.93
2022-09-06 22:02:00,,0830.9,5.00,0.00,29.4,27.6,00.0,38.0,31.2,17.8,0003.7,0036.12,0021.83,0019.93
2022-09-06 22:03:00,,0830.9,5.01,0.00,29.5,27.9,00.0,38.0,31.3,17.8,0003.6,0036.56,0021.78,0019.92
2022-09-06 22:04:00,,0830.9,4.99,0.00,29.5,28.1,00.0,38.1,31.4,17.6,0003.5,0037.27,0021.75,0019.90
2022-09-06 22:05:00,,0830.9,5.00,0.00,29.5,27.5,00.0,38.1,31.4,17.4,0003.0,0038.05,0021.74,0019.90
2022-09-06 22:06:00,,0830.9,5.01,0.00,29.5,26.6,00.0,38.1,31.3,17.5,0002.8,0038.61,0021.84,0020.01
2022-09-06 22:07:00,,0830.9,5.01,0.00,29.5,26.8,00.0,38.1,31.3,17.5,0003.0,0038.71,0021.94,0020.09
2022-09-06 22:08:00,,0830.8,5.00,0.00,29.4,27.1,00.0,38.0,31.2,17.2,0002.7,0039.15,0022.08,0020.19
2022-09-06 22:09:00,,0830.8,5.00,0.00,29.4,27.4,00.0,38.0,31.2,17.5,0002.4,0040.67,0022.15,0020.28
2022-09-06 22:10:00,,0830.8,5.01,0.00,29.4,27.7,00.0,38.0,31.3,17.7,0002.7,0040.86,0022.23,0020.34
2022-09-06 22:11:00,,0830.8,5.01,0.00,29.5,28.0,00.0,38.0,31.4,17.6,0002.6,0040.41,0022.29,0020.43
2022-09-06 22:12:00,,0830.9,4.98,0.00,29.5,27.9,00.0,38.1,31.4,17.6,0003.0,0043.96,0022.37,0020.46
2022-09-06 22:13:00,,0830.8,5.01,0.00,29.5,26.9,00.0,38.1,31.3,17.8,0003.0,0044.98,0022.43,0020.52
2022-09-06 22:14:00,,0830.8,5.01,0.00,29.5,26.6,00.0,38.1,31.3,17.9,0002.8,0046.02,0022.48,0020.55
2022-09-06 22:15:00,,0830.8,4.99,0.00,29.4,27.0,00.0,38.0,31.3,18.4,0003.1,0048.03,0022.59,0020.62
2022-09-06 22:16:00,,0830.8,5.00,0.00,29.4,27.2,00.0,38.0,31.2,18.1,0003.3,0047.16,0022.70,0020.65
2022-09-06 22:17:00,,0830.8,5.00,0.00,29.4,27.5,00.0,38.0,31.2,17.5,0003.4,0047.24,0022.68,0020.64
2022-09-06 22:18:00,,0830.9,5.01,0.00,29.5,27.8,00.0,38.0,31.3,17.5,0003.3,0048.77,0022.65,0020.63
2022-09-06 22:19:00,,0830.9,4.99,0.00,29.5,28.1,00.0,38.0,31.4,17.6,0003.2,0048.24,0022.58,0020.60
2022-09-06 22:20:00,,0831.0,5.00,0.00,29.6,28.1,00.0,38.1,31.5,17.4,0003.4,0047.69,0022.55,0020.55
2022-09-06 22:21:00,,0830.9,5.01,0.00,29.5,27.0,00.0,38.1,31.3,17.3,0003.1,0048.02,0022.56,0020.57
2022-09-06 22:22:00,,0830.9,4.99,0.00,29.5,26.7,00.0,38.1,31.3,17.3,0003.1,0051.26,0022.55,0020.54
2022-09-06 22:23:00,,0830.9,5.01,0.00,29.5,27.0,00.0,38.0,31.3,17.1,0002.9,0048.26,0022.52,0020.56
2022-09-06 22:24:00,,0830.9,5.00,0.00,29.4,27.3,00.0,38.0,31.2,17.2,0002.6,0048.40,0022.58,0020.57
2022-09-06 22:25:00,,0830.9,5.01,0.00,29.4,27.6,00.0,38.0,31.2,17.3,0002.7,0047.77,0022.59,0020.62
2022-09-06 22:26:00,,0830.9,5.00,0.00,29.5,27.9,00.0,38.0,31.3,17.1,0002.6,0045.10,0022.55,0020.61
2022-09-06 22:27:00,,0830.9,4.97,0.00,29.5,28.1,00.0,38.1,31.4,16.8,0002.4,0046.02,0022.52,0020.60
2022-09-06 22:28:00,,0830.9,4.99,0.00,29.5,27.5,00.0,38.1,31.4,16.8,0002.6,0045.83,0022.51,0020.59
2022-09-06 22:29:00,,0830.9,5.00,0.00,29.5,26.6,00.0,38.1,31.3,17.1,0002.6,0043.86,0022.55,0020.58
2022-09-06 22:30:00,,0830.9,5.00,0.00,29.5,26.9,00.0,38.1,31.3,17.0,0002.6,0042.90,0022.52,0020.57
2022-09-06 22:31:00,,0830.9,4.99,0.00,29.4,27.2,00.0,38.0,31.2,17.0,0002.5,0041.77,0022.48,0020.57
2022-09-06 22:32:00,,0831.0,5.00,0.00,29.4,27.5,00.0,38.0,31.2,17.1,0002.4,0040.94,0022.40,0020.50
2022-09-06 22:33:00,,0831.0,5.01,0.00,29.5,27.9,00.0,38.0,31.3,17.1,0002.5,0037.36,0022.31,0020.44
2022-09-06 22:34:00,,0831.0,5.01,0.00,29.5,28.2,00.0,38.1,31.4,17.2,0002.2,0037.75,0022.20,0020.39
2022-09-06 22:35:00,,0831.0,4.98,0.00,29.6,28.0,00.0,38.1,31.5,16.8,0002.2,0037.96,0022.08,0020.32
2022-09-06 22:36:00,,0831.0,5.01,0.00,29.5,27.0,00.0,38.1,31.3,16.8,0002.0,0036.95,0021.97,0020.24
2022-09-06 22:37:00,,0831.0,4.99,0.00,29.5,26.7,00.0,38.1,31.3,16.6,0001.9,0037.18,0022.00,0020.26
2022-09-06 22:38:00,,0831.0,5.02,0.00,29.5,27.0,00.0,38.1,31.3,16.5,0002.3,0036.21,0022.03,0020.29
2022-09-06 22:39:00,,0831.1,5.00,0.00,29.5,27.3,00.0,38.0,31.2,16.6,0002.0,0036.78,0022.02,0020.30
2022-09-06 22:40:00,,0831.0,5.00,0.00,29.5,27.7,00.0,38.0,31.3,16.6,0002.1,0036.64,0021.96,0020.30
2022-09-06 22:41:00,,0831.0,5.01,0.00,29.5,28.0,00.0,38.1,31.3,17.0,0002.3,0036.79,0021.92,0020.27
2022-09-06 22:42:00,,0831.0,4.98,0.00,29.5,28.2,00.0,38.1,31.5,16.9,0002.5,0036.94,0021.82,0020.18
2022-09-06 22:43:00,,0831.0,5.00,0.00,29.5,27.4,00.0,38.1,31.3,16.8,0002.6,0036.69,0021.70,0020.11
2022-09-06 22:44:00,,0831.0,5.00,0.00,29.5,26.6,00.0,38.1,31.2,17.1,0002.8,0036.07,0021.65,0020.06
2022-09-06 22:45:00,,0831.1,5.01,0.00,29.5,26.8,00.0,38.1,31.3,16.9,0003.3,0036.27,0021.64,0020.01
2022-09-06 22:46:00,,0831.1,5.00,0.00,29.4,27.1,00.0,38.0,31.2,17.0,0003.6,0036.37,0021.68,0020.00
2022-09-06 22:47:00,,0831.0,5.00,0.00,29.4,27.4,00.0,38.0,31.2,16.8,0003.9,0036.31,0021.67,0020.00
2022-09-06 22:48:00,,0831.0,5.01,0.00,29.5,27.8,00.0,38.0,31.3,16.6,0003.6,0036.36,0021.57,0019.94
2022-09-06 22:49:00,,0831.0,4.99,0.00,29.5,28.1,00.0,38.1,31.4,16.4,0003.2,0037.04,0021.50,0019.86
2022-09-06 22:50:00,,0831.0,5.00,0.00,29.5,27.9,00.0,38.1,31.4,16.2,0003.3,0036.01,0021.48,0019.82
2022-09-06 22:51:00,,0831.0,4.99,0.00,29.5,26.8,00.0,38.1,31.2,16.2,0003.7,0035.99,0021.44,0019.76
2022-09-06 22:52:00,,0831.0,5.01,0.00,29.5,26.6,00.0,38.1,31.3,16.4,0003.6,0035.85,0021.43,0019.74
2022-09-06 22:53:00,,0831.0,5.01,0.00,29.4,27.0,00.0,38.0,31.2,16.3,0003.7,0036.00,0021.53,0019.78
2022-09-06 22:54:00,,0831.0,5.00,0.00,29.4,27.3,00.0,38.0,31.1,16.2,0004.2,0036.22,0021.62,0019.86
2022-09-06 22:55:00,,0831.1,5.00,0.00,29.4,27.6,00.0,38.0,31.2,16.0,0004.2,0035.75,0021.66,0019.91
2022-09-06 22:56:00,,0831.0,5.01,0.00,29.5,27.9,00.0,38.0,31.3,15.9,0004.0,0034.72,0021.68,0019.95
2022-09-06 22:57:00,,0831.0,4.99,0.00,29.5,28.1,00.0,38.1,31.4,15.9,0003.6,0034.51,0021.68,0019.96
2022-09-06 22:58:00,,0831.0,5.01,0.00,29.5,27.2,00.0,38.1,31.3,15.8,0003.8,0034.13,0021.73,0019.98
2022-09-06 22:59:00,,0831.0,4.99,0.00,29.5,26.5,00.0,38.1,31.2,15.8,0004.2,0033.81,0021.75,0019.98
